Williamtown Air Force Base, Australia

3:56 AM AEDT on February 13, 2016 (GMT +1100)
Williamtown Military

Weather History for YWLM - November, 2012

Change the Weather History Date:

Tuesday, November 27, 2012

  Actual Average Record
Temperature  
Mean Temperature 76 °F -  
Max Temperature 89 °F - - ()
Min Temperature 64 °F - - ()
Cooling Degree Days 12    
Growing Degree Days 26 (Base 50)    
Moisture  
Dew Point 66 °F    
Average Humidity 80    
Maximum Humidity 100    
Minimum Humidity 28    
Precipitation  
Precipitation 0.31 in - - ()
Sea Level Pressure  
Sea Level Pressure 29.96 in    
Wind  
Wind Speed 7 mph ()    
Max Wind Speed 22 mph    
Max Gust Speed -    
Visibility 5.5 miles    
Events Rain    
T = Trace of Precipitation, MM = Missing Value Source: Averaged Metar Reports

Daily Weather History Graph

Daily Weather History Graph

Search for Another Location

Airport or City:

Trip Planner

Search our weather history database for the weather conditions in past years. The results will help you decide how hot, cold, wet, or windy it might be!

Date:

Astronomy

Nov. 27, 2012 Rise Set
Actual Time 5:38 AM AEDT 7:42 PM AEDT
Civil Twilight 5:10 AM AEDT 8:10 PM AEDT
Nautical Twilight 4:36 AM AEDT 8:44 PM AEDT
Astronomical Twilight 4:00 AM AEDT 9:20 PM AEDT
Moon 6:32 PM AEDT (11/27) 4:29 AM AEDT (11/27)
Length of Visible Light 15h 00m
Length of Day
14h 04m
Waxing Gibbous, 98% of the Moon is Illuminated
Nov 27
Waxing Gibbous
Nov 29
Full
Dec 7
Last Quarter
Dec 13
New
Dec 20
First Quarter

Hourly Weather History & Observations

Time (AEDT) Temp. Heat Index Dew Point Humidity Pressure Visibility Wind Dir Wind Speed Gust Speed Precip Events Conditions
12:00 AM 69 °F - 64 °F 79% 29.97 in - SW 5.8 mph - -  
12:00 AM 69.8 °F - 64.4 °F 83% 29.95 in 6.2 mi SW 5.8 mph - N/A   Unknown
12:30 AM 68.0 °F - 64.4 °F 88% 29.95 in 6.2 mi WSW 5.8 mph - N/A   Unknown
1:00 AM 68.0 °F - 64.4 °F 88% 29.95 in 6.2 mi SE 4.6 mph - N/A   Unknown
1:30 AM 68.0 °F - 64.4 °F 88% 29.95 in 6.2 mi Calm Calm - N/A   Unknown
2:00 AM 67 °F - 65 °F 92% 29.94 in - North 3.5 mph - -  
2:00 AM 68.0 °F - 66.2 °F 94% 29.92 in 6.2 mi North 3.5 mph - N/A   Unknown
2:30 AM 68.0 °F - 64.4 °F 88% 29.92 in 6.2 mi Calm Calm - N/A   Unknown
3:00 AM 66 °F - 64 °F 93% 29.93 in - Calm Calm - -  
3:00 AM 66.2 °F - 64.4 °F 94% 29.92 in 6.2 mi Calm Calm - N/A   Unknown
3:30 AM 64.4 °F - 62.6 °F 94% 29.92 in 6.2 mi Calm Calm - N/A   Unknown
4:00 AM 64.4 °F - 62.6 °F 94% 29.92 in 6.2 mi ENE 3.5 mph - N/A   Unknown
4:30 AM 64.4 °F - 64.4 °F 100% 29.92 in 6.2 mi NNE 5.8 mph - N/A   Unknown
5:00 AM 66 °F - 64 °F 92% 29.90 in - North 6.9 mph - -  
5:00 AM 66.2 °F - 64.4 °F 94% 29.89 in 6.2 mi North 6.9 mph - N/A   Unknown
5:30 AM 66.2 °F - 64.4 °F 94% 29.89 in 6.2 mi North 6.9 mph - N/A   Unknown
6:00 AM 67 °F - 65 °F 90% 29.90 in - NNE 6.9 mph - -  
6:00 AM 66.2 °F - 64.4 °F 94% 29.89 in - North 6.9 mph - N/A   Clear
6:30 AM 69.8 °F - 66.2 °F 88% 29.89 in - North 8.1 mph - N/A   Clear
7:00 AM 71.6 °F - 66.2 °F 83% 29.92 in - North 6.9 mph - N/A   Clear
7:30 AM 73.4 °F - 66.2 °F 78% 29.92 in - North 5.8 mph - N/A   Clear
8:00 AM 74 °F - 66 °F 68% 29.94 in - North 4.6 mph - -  
8:00 AM 73.4 °F - 66.2 °F 78% 29.92 in - North 4.6 mph - N/A   Clear
8:30 AM 77.0 °F - 68.0 °F 74% 29.92 in 6.2 mi NE 5.8 mph - N/A   Unknown
9:00 AM 79 °F - 66 °F 57% 29.94 in - NNW 5.8 mph - -  
9:00 AM 78.8 °F - 66.2 °F 65% 29.92 in - NNW 5.8 mph - N/A   Clear
9:30 AM 80.6 °F 82.7 °F 66.2 °F 61% 29.92 in - NNW 5.8 mph - N/A   Clear
10:00 AM 84.2 °F 85.0 °F 62.6 °F 48% 29.92 in - NW 5.8 mph - N/A   Clear
11:00 AM 86 °F - 60 °F 31% 29.94 in - NW 6.9 mph - -  
11:00 AM 86.0 °F 86.1 °F 60.8 °F 43% 29.92 in - NW 6.9 mph - N/A   Clear
11:30 AM 87.8 °F 88.5 °F 62.6 °F 43% 29.92 in - North 5.8 mph - N/A   Clear
12:00 PM 89 °F - 60 °F 28% 29.92 in - NW 6.9 mph - -  
12:00 PM 89.6 °F 89.5 °F 60.8 °F 38% 29.92 in - NW 6.9 mph - N/A   Clear
12:30 PM 89.6 °F 88.1 °F 57.2 °F 33% 29.92 in - West 12.7 mph - N/A   Clear
1:00 PM 86.0 °F 86.6 °F 62.6 °F 45% 29.92 in - SE 16.1 mph - N/A   Clear
1:11 PM 80.6 °F 82.7 °F 66.2 °F 61% 29.95 in - South 21.9 mph - N/A   Clear
1:30 PM 78.8 °F - 68.0 °F 69% 29.95 in - South 21.9 mph - N/A   Clear
2:00 PM 79 °F - 66 °F 56% 29.96 in - South 16.1 mph - -  
2:00 PM 78.8 °F - 66.2 °F 65% 29.95 in - South 16.1 mph - N/A   Clear
2:30 PM 75.2 °F - 66.2 °F 73% 29.95 in - South 17.3 mph - N/A   Clear
3:00 PM 76 °F - 68 °F 70% 29.95 in - South 15.0 mph - -  
3:00 PM 77.0 °F - 68.0 °F 74% 29.95 in 6.2 mi South 15.0 mph - N/A   Mostly Cloudy
3:19 PM 73.4 °F - 68.0 °F 83% 29.95 in 6.2 mi South 15.0 mph - N/A   Mostly Cloudy
3:30 PM 73.4 °F - 68.0 °F 83% 29.92 in 6.2 mi SSE 17.3 mph - N/A   Mostly Cloudy
4:00 PM 73.4 °F - 66.2 °F 78% 29.92 in 6.2 mi SSE 15.0 mph - N/A   Mostly Cloudy
4:30 PM 73.4 °F - 66.2 °F 78% 29.92 in 6.2 mi SSE 15.0 mph - N/A   Mostly Cloudy
5:00 PM 73 °F - 67 °F 77% 29.93 in - SSE 15.0 mph - -  
5:00 PM 73.4 °F - 68.0 °F 83% 29.92 in 6.2 mi SSE 15.0 mph - N/A   Mostly Cloudy
5:30 PM 71.6 °F - 68.0 °F 88% 29.92 in 6.2 mi SSE 12.7 mph - N/A   Mostly Cloudy
6:00 PM 72 °F - 67 °F 81% 29.95 in - SSE 10.4 mph - -   Overcast
6:00 PM 71.6 °F - 68.0 °F 88% 29.95 in 6.2 mi SSE 10.4 mph - N/A   Mostly Cloudy
6:30 PM 71.6 °F - 68.0 °F 88% 29.95 in 6.2 mi South 8.1 mph - N/A   Mostly Cloudy
7:00 PM 71.6 °F - 68.0 °F 88% 29.95 in 6.2 mi South 8.1 mph - N/A Rain Light Rain Showers
7:29 PM 69.8 °F - 68.0 °F 94% 29.98 in 5.0 mi SW 4.6 mph - N/A Rain Light Rain Showers
8:00 PM 70 °F - 68 °F 93% 30.00 in - SSW 5.8 mph - -  
8:00 PM 69.8 °F - 68.0 °F 94% 29.98 in 6.2 mi SSW 5.8 mph - N/A Rain Light Rain Showers
8:19 PM 69.8 °F - 68.0 °F 94% 29.98 in 4.3 mi SSW 8.1 mph - N/A Rain Light Rain
8:20 PM 69.8 °F - 68.0 °F 94% 29.98 in 3.7 mi SSW 8.1 mph - N/A Rain Light Rain
8:30 PM 69.8 °F - 68.0 °F 94% 29.98 in 4.3 mi SSW 10.4 mph - N/A   Light Drizzle
8:57 PM 69.8 °F - 68.0 °F 94% 30.01 in 3.7 mi SSW 12.7 mph - N/A Rain Light Rain Showers
9:00 PM 70 °F - 68 °F 93% 30.03 in 4 mi SSW 12.7 mph - -   Overcast
9:00 PM 69.8 °F - 68.0 °F 94% 30.01 in 3.7 mi SSW 12.7 mph - N/A Rain Light Rain Showers
9:20 PM 69.8 °F - 68.0 °F 94% 30.04 in 4.3 mi SSW 17.3 mph - N/A Rain Light Rain Showers
9:30 PM 69.8 °F - 68.0 °F 94% 30.04 in 4.3 mi South 18.4 mph - N/A Rain Light Rain Showers
9:38 PM 69.8 °F - 68.0 °F 94% 30.06 in 3.7 mi SSW 16.1 mph - N/A Rain Rain Showers
9:40 PM 68.0 °F - 68.0 °F 100% 30.06 in 3.7 mi SSW 15.0 mph - N/A Rain Rain Showers
10:00 PM 68.0 °F - 66.2 °F 94% 30.09 in 3.7 mi SSW 18.4 mph - N/A Rain Rain
10:30 PM 66.2 °F - 64.4 °F 94% 30.09 in 3.7 mi SSW 20.7 mph - N/A Rain Rain
10:43 PM 68.0 °F - 66.2 °F 94% 30.09 in 5.6 mi SSW 18.4 mph - N/A Rain Rain
11:00 PM 67 °F - 65 °F 92% 30.12 in - SSW 11.5 mph - -  
11:00 PM 68.0 °F - 66.2 °F 94% 30.09 in 6.2 mi SSW 11.5 mph - N/A Rain Light Rain
11:30 PM 68.0 °F - 66.2 °F 94% 30.06 in 6.2 mi South 11.5 mph - N/A Rain Light Rain
11:53 PM 68.0 °F - 64.4 °F 88% 30.01 in 6.2 mi East 12.7 mph - N/A Rain Light Rain